This demonstration page uses our WeatherBlox Daily Observations layout. Learn more.

Left ArrowRight Arrow

31.84235, -102.49876

Hourly Observations for June 2, 2022

Temp ( °F °C ) Dew Point ( °F °C ) Humidity (%) Winds ( mph kmh ) Pressure ( in mb ) Visibility ( mi km ) Precip ( " mm )
12:53 am 00:53 Clear 65 18.3 59 15 81 81 NNE 15 24 29.88 1012 10 16 0.00 0.00
1:53 am 01:53 Clear 64 17.8 60 15.6 87 87 N 6 9 29.88 1012 10 16 0.00 0.00
2:53 am 02:53 Clear 63 17.2 60 15.6 90 90 NNE 9 15 29.89 1012 10 16 0.00 0.00
3:25 am 03:25 Mostly Clear 62 16.7 60 15.6 93 93 NNE 14 22 29.95 1014 10 16 0.00 0.00
3:39 am 03:39 Mostly Cloudy 62 16.7 59 15 90 90 NE 14 22 29.96 1014 10 16 0.00 0.00
3:53 am 03:53 Cloudy 62 16.7 59 15 90 90 NE 16 26 29.90 1013 10 16 0.00 0.00
4:53 am 04:53 Cloudy 62 16.7 59 15 90 90 NE 12 19 29.93 1014 10 16 0.00 0.00
5:53 am 05:53 Cloudy 61 16.1 59 15 93 93 ENE 10 17 29.96 1014 8 13 0.00 0.00
6:08 am 06:08 Cloudy 61 16.1 59 15 93 93 ENE 9 15 30.00 1016 7 11 0.00 0.00
6:35 am 06:35 Cloudy 61 16.1 59 15 93 93 ENE 9 15 30.00 1016 7 11 0.00 0.00
6:53 am 06:53 Cloudy 62 16.7 59 15 90 90 ENE 8 13 29.96 1015 7 11 0.00 0.00
7:53 am 07:53 Cloudy with Mist and Fog 62 16.7 60 15.6 93 93 NE 9 15 29.99 1016 6 10 0.00 0.00
8:53 am 08:53 Cloudy with Mist and Fog 63 17.2 60 15.6 90 90 NE 12 19 30.00 1016 6 10 0.00 0.00
9:53 am 09:53 Cloudy 64 17.8 60 15.6 87 87 ENE 13 20 30.01 1016 10 16 0.00 0.00
10:30 am 10:30 Cloudy 65 18.3 60 15.6 84 84 ENE 12 19 30.01 1016 10 16 0.00 0.00
10:53 am 10:53 Cloudy 66 18.9 60 15.6 81 81 NE 13 20 30.01 1016 10 16 0.00 0.00
11:53 am 11:53 Cloudy 66 18.9 60 15.6 81 81 E 12 19 30.02 1017 10 16 0.00 0.00
12:53 pm 12:53 Cloudy 67 19.4 60 15.6 79 79 NE 13 20 30.02 1017 9 14 0.00 0.00
1:53 pm 13:53 Cloudy with Haze 67 19.4 61 16.1 81 81 ENE 13 20 30.01 1016 6 10 0.00 0.00
2:53 pm 14:53 Cloudy 67 19.4 61 16.1 81 81 E 13 20 29.99 1016 7 11 0.00 0.00
3:53 pm 15:53 Cloudy 68 20 62 16.7 81 81 E 13 20 29.97 1015 7 11 0.00 0.00
4:34 pm 16:34 Cloudy 69 20.6 62 16.7 78 78 E 13 20 29.92 1013 7 11 0.00 0.00
4:53 pm 16:53 Cloudy 69 20.6 63 17.2 81 81 E 9 15 29.93 1014 8 13 0.00 0.00
5:53 pm 17:53 Mostly Cloudy 72 22.2 63 17.2 73 73 ENE 13 20 29.90 1012 8 13 0.00 0.00
6:05 pm 18:05 Mostly Sunny 72 22.2 63 17.2 73 73 ENE 13 20 29.86 1011 8 13 0.00 0.00
6:53 pm 18:53 Partly Cloudy 73 22.8 64 17.8 74 74 ENE 13 20 29.87 1012 9 14 0.00 0.00
7:53 pm 19:53 Sunny 73 22.8 64 17.8 74 74 E 12 19 29.86 1011 10 16 0.00 0.00
8:53 pm 20:53 Clear 72 22.2 65 18.3 79 79 ENE 9 15 29.86 1011 10 16 0.00 0.00
9:53 pm 21:53 Clear 71 21.7 65 18.3 81 81 NE 8 13 29.88 1012 10 16 0.00 0.00
10:53 pm 22:53 Clear 70 21.1 65 18.3 84 84 E 9 15 29.89 1012 10 16 0.00 0.00
11:53 pm 23:53 Clear 70 21.1 65 18.3 84 84 E 12 19 29.90 1013 10 16 0.00 0.00

Powered by AerisWeather